Showing default

ORBCOMM FM 16, 25417

Orbit data source: Space-Track

ORBCOMM FM 16, 25417 is a payload satellite owned by Orbcomm (US) in LEO that was launched on Sun, 02 Aug 1998 UTC via a PEGASUS XL/HAPS launch vehicle from the Pegasus Launch, Eastern Range Air Space (ERAS). Payloads include a variety of satellites, spacecraft, and rockets equipped with specific instruments for various scientific and technological missions. These include communications satellites like Starlink; space stations such as the ISS; scientific satellites like the Hubble; Earth observation satellites from companies like Planet Labs, Umbra, and HawkEye 360; GPS; miniature CubeSats for education and research; and military/defense satellites.

Loading next visibility...
ORBCOMM FM 16 details
Identifier
25417, 1998-046E
Orbit
LEO
Last TLE update11 hours ago
Origin
Flag of USOrbcomm (US / ORB)
ManufacturerOSC-Germantown
MissionNon-operational Commercial Communications
Bus & MotorMICROSTAR, Unknown motor
Mass42 kg wet, 42 kg dry
Launch date (UTC)
1998-08-02 (26 years ago)
Launch vehicle
PEGASUS XL/HAPS
Launch site
Pegasus Launch, Eastern Range Air Space (ERAS)
Object type
Payload
Rocket body
Debris
Shape & HBRCyl + 2 Pan, 4.3 m
Radar Cross Section1.484 m², Medium (>0.1 m² and < 1m²)

Expand to show TLE details & history

TLE from 11 hours ago
0 ORBCOMM FM 16
1 25417U 98046E   24361.46273111  .00003914  00000-0  13302-2 0  9995
2 25417  44.9934 272.5347 0003240 133.2869 226.8249 14.37923512379385
Epoch: 2024-12-26T11:06Z
Definitive object data (Epoch: 2024-12-26T11:06:19.967Z)
Latitude-0.00008°
Longitude10.50965°
Altitude766.949 km
Speed7.471 km/s
True Right ascension18h 10m 08s
True Declination0° 00' 00"
Sunlit
Object was in daylight at TLE epoch
Visualization TLE readout
Latitude41.95934°
Longitude124.98429°
Altitude766.444 km
Speed7.478 km/s
Apparent Right ascension05h 11m 02s
Apparent Declination6° 29' 05"
Sunlit
Object is in full shadow
Visualization observer readout
Local Sidereal Time21:00:01
Azimuth62.685° ENE
Elevation-19.867°
Doppler factor1
Orbital elements
Apogee altitude769.229 km
Perigee altitude764.599 km
Semi-major axis7,145.051 km
Eccentricity0.000324
Inclination44.9934°
RAAN272.5347°
Arg. of periapsis133.2869°
True anomaly226.79783°
Mean anomaly226.8249°
Eccentric anomaly226.81137°
Mean motion3.59364 °/min
BSTAR0.0013302
Orbital period100.18 mins
Loading maneuver chart data...

ORBCOMM FM 16 Visibility forecast

Observer location: undefined°, undefined

Span
Click to sort rows by Start time (UTC) header in descending order
Start Az.
Max El. time (UTC)
Max El. Az.
Max El.
End time (UTC)
End Az.
10 mins2024-12-26 23:02:00.246Z261.61° W2024-12-26 23:07:00.246Z353.121° N42.259°2024-12-26 23:12:00.246Z65.629° ENE
8 mins2024-12-27 00:49:00.246Z294.567° NW2024-12-27 00:53:00.246Z18.293° NNE36.769°2024-12-27 00:57:00.246Z75.748° E
9 mins2024-12-27 02:34:00.246Z294.482° NW2024-12-27 02:38:00.246Z334.889° NNW44.614°2024-12-27 02:43:00.246Z111.021° ESE
7 mins2024-12-27 04:20:00.246Z268.068° W2024-12-27 04:23:00.246Z221.531° SW26.384°2024-12-27 04:27:00.246Z164.115° S
8 mins2024-12-27 20:38:00.246Z201.296° SSW2024-12-27 20:42:00.246Z132.428° SE30.419°2024-12-27 20:46:00.246Z79.67° E
|